Weather History for Nome, AK

Change the Weather History Date:

Monday, July 15, 2013

  Actual Average Record
Temperature  
Mean Temperature 52 °F 53 °F  
Max Temperature 56 °F 59 °F 69 °F (1960)
Min Temperature 48 °F 47 °F 33 °F (1959)
Degree Days  
Heating Degree Days 13 13  
Month to date heating degree days 199 192  
Since 1 June heating degree days 675 708  
Since 1 July heating degree days 199 192  
Cooling Degree Days 0    
Month to date cooling degree days 0  
Year to date cooling degree days 7  
Since 1 June cooling degree days 7  
Growing Degree Days 2 (Base 50)    
Moisture  
Dew Point 50 °F    
Average Humidity 0    
Maximum Humidity 0    
Minimum Humidity 0    
Precipitation  
Precipitation 0.01 in 0.06 in 0.77 in (1967)
Month to date precipitation 1.87 0.81  
Year to date precipitation 8.65 5.93  
Snow  
Snow 0.00 in 0.00 in 0.00 in (2014)
Month to date snowfall 0.0 0.0  
Since 1 June snowfall 0.1 0.3  
Since 1 July snowfall 0.0 0.0  
Snow Depth 0.00 in    
Sea Level Pressure  
Sea Level Pressure 30.05 in    
Wind  
Wind Speed 8 mph (SSE)    
Max Wind Speed 14 mph    
Max Gust Speed 17 mph    
Visibility 7 miles    
Events Rain    
T = Trace of Precipitation, MM = Missing Value Source: NWS Daily Summary

Daily Weather History Graph

Daily Weather History Graph

Search for Another Location

Airport:

Trip Planner

Search our weather history database for the weather conditions in past years. The results will help you decide how hot, cold, wet, or windy it might be!

Date:

Astronomy

Jul. 15, 2013 Rise Set
Actual Time 5:10 AM AKDT 1:02 AM AKDT
Civil Twilight 3:40 AM AKDT 2:35 AM AKDT
Nautical Twilight Sun does not rise Sun does not rise
Astronomical Twilight Sun does not rise Sun does not rise
Moon 4:16 PM AKDT (7/15) 1:07 AM AKDT (7/15)
Length of Visible Light 22h 55m
Length of Day
19h 52m
Waxing Crescent, 47% of the Moon is Illuminated
Jul 15
Waxing Crescent
Jul 15
First Quarter
Jul 22
Full
Jul 29
Last Quarter
Aug 6
New

Hourly Weather History & Observations

Time (AKDT) Temp. Dew Point Humidity Pressure Visibility Wind Dir Wind Speed Gust Speed Precip Events Conditions
12:15 AM 50.0 °F 48.2 °F 94% 30.02 in 6.0 mi South 10.4 mph - 0.00 in   Overcast
12:32 AM 50.0 °F 48.2 °F 94% 30.02 in 9.0 mi South 10.4 mph - 0.00 in   Overcast
12:53 AM 50.0 °F 48.9 °F 96% 30.02 in 9.0 mi SSE 10.4 mph - 0.00 in   Overcast
1:26 AM 50.0 °F 48.2 °F 94% 30.03 in 10.0 mi South 9.2 mph - N/A   Overcast
1:53 AM 50.0 °F 48.0 °F 93% 30.04 in 10.0 mi South 9.2 mph - N/A   Overcast
2:53 AM 48.9 °F 48.0 °F 97% 30.04 in 6.0 mi South 11.5 mph - N/A   Overcast
3:53 AM 48.9 °F 46.9 °F 93% 30.06 in 10.0 mi South 8.1 mph - N/A   Overcast
4:53 AM 48.0 °F 46.9 °F 96% 30.06 in 6.0 mi SSE 4.6 mph - N/A   Overcast
5:53 AM 48.9 °F 46.9 °F 93% 30.06 in 10.0 mi SSE 5.8 mph - N/A   Overcast
6:53 AM 48.9 °F 46.9 °F 93% 30.06 in 10.0 mi South 4.6 mph - N/A   Overcast
7:53 AM 48.9 °F 46.9 °F 93% 30.07 in 10.0 mi SSE 6.9 mph - N/A   Overcast
8:53 AM 50.0 °F 48.0 °F 93% 30.08 in 10.0 mi SSE 5.8 mph - N/A   Overcast
9:49 AM 50.0 °F 48.2 °F 94% 30.07 in 2.5 mi South 10.4 mph - N/A   Overcast
9:53 AM 50.0 °F 48.0 °F 93% 30.07 in 2.5 mi South 8.1 mph - N/A   Overcast
10:00 AM 50.0 °F 48.2 °F 94% 30.07 in 1.8 mi South 9.2 mph - N/A   Overcast
10:32 AM 48.2 °F 48.2 °F 100% 30.07 in 2.0 mi South 5.8 mph - N/A   Overcast
10:39 AM 48.2 °F 48.2 °F 100% 30.07 in 3.0 mi SSE 5.8 mph - N/A   Overcast
10:53 AM 50.0 °F 48.9 °F 96% 30.08 in 3.0 mi SSE 3.5 mph - N/A   Overcast
11:29 AM 51.8 °F 48.2 °F 88% 30.07 in 10.0 mi Calm Calm - N/A   Overcast
11:53 AM 52.0 °F 48.9 °F 89% 30.07 in 10.0 mi SSE 4.6 mph - N/A   Overcast
12:06 PM 51.8 °F 50.0 °F 94% 30.07 in 10.0 mi SSE 5.8 mph - N/A   Overcast
12:19 PM 53.6 °F 50.0 °F 88% 30.07 in 10.0 mi ESE 4.6 mph - N/A   Overcast
12:53 PM 53.1 °F 51.1 °F 93% 30.08 in 10.0 mi SSE 6.9 mph - N/A   Overcast
1:00 PM 53.6 °F 50.0 °F 88% 30.08 in 10.0 mi SE 8.1 mph - N/A   Overcast
1:53 PM 54.0 °F 50.0 °F 86% 30.06 in 10.0 mi SE 10.4 mph - N/A   Overcast
2:53 PM 55.0 °F 52.0 °F 89% 30.06 in 10.0 mi SE 11.5 mph - N/A   Overcast
3:05 PM 53.6 °F 51.8 °F 94% 30.06 in 3.0 mi SE 11.5 mph - N/A   Overcast
3:53 PM 55.0 °F 53.1 °F 93% 30.05 in 6.0 mi SE 11.5 mph - 0.00 in Rain Light Rain
4:04 PM 55.4 °F 53.6 °F 94% 30.05 in 2.5 mi SE 11.5 mph - 0.00 in   Overcast
4:10 PM 53.6 °F 51.8 °F 94% 30.05 in 3.0 mi SSE 11.5 mph - 0.00 in   Light Drizzle
4:40 PM 55.4 °F 51.8 °F 88% 30.04 in 7.0 mi SE 12.7 mph - 0.00 in   Mostly Cloudy
4:53 PM 55.0 °F 52.0 °F 89% 30.04 in 7.0 mi SE 12.7 mph - 0.00 in   Mostly Cloudy
5:00 PM 55.4 °F 51.8 °F 88% 30.04 in 10.0 mi SE 11.5 mph - N/A   Overcast
5:27 PM 55.4 °F 51.8 °F 88% 30.03 in 10.0 mi SE 11.5 mph - N/A   Overcast
5:53 PM 55.0 °F 52.0 °F 89% 30.02 in 10.0 mi SE 11.5 mph - N/A   Overcast
6:03 PM 53.6 °F 51.8 °F 94% 30.02 in 7.0 mi SE 12.7 mph - N/A   Overcast
6:53 PM 55.0 °F 52.0 °F 89% 30.03 in 7.0 mi SE 10.4 mph - N/A   Overcast
7:19 PM 53.6 °F 51.8 °F 94% 30.03 in 2.0 mi SSE 12.7 mph - 0.00 in   Light Drizzle
7:24 PM 53.6 °F 53.6 °F 100% 30.03 in 3.0 mi SSE 11.5 mph - 0.00 in   Light Drizzle
7:53 PM 54.0 °F 52.0 °F 93% 30.03 in 9.0 mi SSE 11.5 mph - 0.00 in   Overcast
8:53 PM 54.0 °F 52.0 °F 93% 30.01 in 10.0 mi SSE 11.5 mph - N/A   Overcast
9:53 PM 53.1 °F 51.1 °F 93% 30.01 in 9.0 mi South 10.4 mph - 0.00 in   Overcast
10:53 PM 52.0 °F 51.1 °F 97% 30.01 in 3.0 mi South 9.2 mph - N/A   Overcast
11:13 PM 51.8 °F 50.0 °F 94% 30.01 in 10.0 mi South 5.8 mph - N/A   Overcast
11:53 PM 51.1 °F 50.0 °F 96% 30.01 in 3.0 mi SSE 4.6 mph - N/A   Overcast